Theta_e
310 310 311 312 312 314 315 316 318 319 321 321 321 321 321 322 323 324 323 325 326 326 326 327 328 327 323 315 315 326 330 329 322 319 316 313 311 310 307 308 307 308 309 308 310 309 309
309 309 309 310 311 312 314 315 316 317 319 320 319 320 320 321 322 323 323 324 325 325 325 327 327 327 319 307 324 328 324 322 320 318 316 314 312 313 310 308 307 309 308 310 309 307 305
308 308 309 309 310 312 312 313 315 316 317 319 320 319 319 320 321 322 322 323 324 324 324 326 327 325 314 312 326 327 323 320 322 319 315 317 316 310 312 308 311 309 305 308 309 310 308
308 307 308 308 309 310 311 312 312 315 316 317 319 318 318 319 320 320 321 322 322 323 324 326 327 321 308 321 327 325 324 320 322 322 319 319 320 313 309 308 306 306 306 301 308 306 308
307 307 307 307 307 308 309 310 311 313 315 315 317 317 318 318 319 319 321 321 321 323 322 325 319 313 306 321 318 324 324 318 319 320 320 320 317 310 309 304 301 300 299 299 303 305 304
306 306 306 307 307 307 308 309 309 310 313 314 315 316 317 318 318 318 319 320 320 321 319 320 314 307 308 309 317 320 323 320 315 314 312 311 309 303 302 302 294 296 296 297 299 304 302
305 306 306 306 306 306 307 308 307 310 311 313 314 315 317 317 318 319 318 313 304 302 309 303 304 303 307 313 319 315 320 315 314 310 301 307 298 292 297 301 299 299 296 295 297 303 300
304 305 306 306 306 306 307 307 305 309 309 308 314 314 316 317 318 318 315 305 304 307 298 305 306 305 310 315 306 311 319 308 306 300 304 300 294 300 301 302 301 298 296 293 298 300 299
304 304 305 306 306 306 306 307 308 310 311 307 313 314 314 315 317 314 310 308 311 312 297 298 303 305 308 310 305 307 312 309 303 300 300 296 299 303 301 299 299 297 294 294 294 298 300
304 304 305 306 306 307 305 306 307 308 308 308 310 313 313 315 310 309 306 310 310 310 291 291 296 301 307 307 301 311 313 307 303 298 300 299 301 300 299 298 300 294 300 299 296 292 289
305 303 305 307 306 307 306 307 308 307 308 309 311 313 312 315 306 303 308 310 306 305 277 292 295 304 304 302 303 303 312 306 300 299 300 296 298 298 297 299 301 297 301 299 297 294 293
306 304 303 305 305 307 307 307 307 308 308 310 310 312 312 309 308 308 311 307 303 284 276 286 294 295 295 297 297 304 305 307 304 300 300 299 303 302 300 302 302 302 299 298 297 295 287
305 306 306 306 305 306 307 307 306 308 308 309 310 311 308 307 302 310 307 301 283 279 288 284 288 293 293 292 293 297 297 296 291 289 290 295 296 300 302 298 301 299 295 286 285 284 284
306 308 308 307 305 308 307 307 307 308 308 309 310 310 308 306 308 308 304 291 280 282 284 290 291 293 289 292 292 293 294 292 294 293 290 287 286 296 301 298 295 296 294 287 280 282 286
308 307 308 309 308 306 307 307 307 307 307 308 309 305 304 307 310 308 295 283 281 285 288 288 289 287 288 291 291 292 292 291 295 295 289 288 287 298 299 300 300 294 290 296 286 280 284
307 307 307 307 308 308 307 307 307 307 307 308 302 300 299 306 309 303 290 284 284 289 291 291 284 288 284 287 288 289 290 294 293 298 297 291 286 294 298 300 300 298 298 287 287 282 280
307 309 307 307 307 307 307 307 307 307 307 308 299 292 301 305 306 295 284 284 287 292 293 289 287 286 287 287 289 288 288 291 295 297 299 295 291 289 296 294 292 292 291 291 292 288 284
304 306 307 307 307 307 307 307 307 307 307 304 294 286 300 304 290 289 285 287 292 291 294 291 291 289 288 289 287 288 287 291 296 296 293 296 291 286 290 296 298 298 294 293 286 285 287
305 306 306 307 307 307 307 307 307 307 307 298 288 292 301 303 284 284 288 289 292 290 291 289 288 290 291 288 284 288 289 292 294 295 292 295 289 283 285 290 294 293 295 295 294 291 287
305 305 306 307 307 307 307 307 307 307 306 301 292 285 292 295 293 288 286 287 287 292 289 290 289 291 289 287 287 287 288 291 293 295 296 297 290 286 282 285 290 288 291 295 293 287 287
304 305 305 306 306 306 306 306 307 307 306 300 288 284 285 282 287 290 291 288 286 286 290 291 288 289 288 284 285 284 289 289 293 294 295 294 286 288 289 289 290 290 289 291 290 292 287
304 305 305 305 306 306 306 307 307 306 305 292 286 285 288 286 290 289 289 287 286 286 288 285 288 289 289 285 287 284 288 290 289 292 292 293 286 288 284 289 289 286 289 289 289 290 291
305 305 305 306 306 306 307 307 307 305 301 291 291 293 294 289 289 288 288 288 287 289 288 290 291 289 287 288 292 293 294 294 293 291 290 290 286 284 281 286 286 282 287 288 289 291 291
305 306 306 306 307 307 307 306 307 305 301 296 295 296 289 284 288 286 288 288 287 288 286 289 291 289 290 295 294 292 290 291 291 291 292 286 285 285 281 282 275 286 291 292 290 291 293
307 307 306 306 306 305 304 304 304 304 303 293 291 295 289 284 285 287 288 286 288 289 286 288 289 291 295 292 286 282 282 283 284 288 289 290 286 281 278 278 282 284 286 287 287 288 294
306 306 305 305 304 303 303 302 302 301 299 293 290 293 291 286 284 288 287 288 285 285 285 285 289 291 292 287 284 277 276 277 276 280 286 289 289 282 278 276 274 284 290 293 293 282 293
304 304 304 303 304 304 303 302 302 302 300 295 290 292 293 284 282 285 286 286 289 286 284 285 286 287 289 282 278 276 277 277 277 276 279 280 281 280 280 277 280 286 289 292 280 283 294
304 304 303 303 304 304 304 304 303 302 302 294 290 293 291 285 283 282 283 286 286 288 285 285 287 286 283 281 280 277 278 278 278 281 280 280 278 279 280 276 274 290 288 284 290 293 293
303 303 303 303 303 304 303 303 303 302 300 299 290 292 294 287 284 285 283 284 284 287 287 284 286 284 287 282 280 280 278 277 278 277 283 279 284 282 283 283 290 292 291 287 287 287 286
Wind_Speed
28 29 29 29 27 28 26 26 25 26 26 28 28 26 24 24 24 21 20 17 15 14 16 16 14 13 8 7 8 4 7 6 6 8 8 5 8 7 10 5 5 7 4 4 4 5 5
31 30 31 31 29 29 27 25 26 27 27 28 30 28 25 23 24 22 20 19 16 14 15 17 16 18 6 17 5 12 15 2 3 8 6 3 6 4 6 5 9 3 5 4 2 2 3
32 32 31 31 30 30 28 27 28 25 28 28 28 30 26 25 24 23 21 19 17 14 13 17 17 14 9 17 8 12 11 10 5 5 6 2 1 3 6 7 4 4 5 4 8 8 4
32 31 32 32 31 30 29 28 28 26 28 28 28 29 27 26 25 24 21 19 17 14 12 16 21 11 8 5 13 16 15 7 5 8 7 5 4 5 0 5 3 7 4 10 6 6 3
30 31 31 32 31 29 28 30 29 25 27 28 28 28 28 27 25 24 22 19 17 14 15 17 8 8 7 10 14 18 16 18 11 9 4 7 6 3 2 7 4 3 13 9 7 7 2
30 30 29 32 30 27 31 31 30 31 29 26 25 24 29 29 27 25 23 19 14 11 7 11 1 5 4 10 11 13 13 18 6 13 4 1 6 3 2 10 15 9 8 6 9 3 7
32 31 30 30 30 28 33 30 25 30 26 22 25 21 26 29 29 27 20 11 9 6 8 10 5 6 9 8 11 13 19 14 10 13 10 10 6 11 13 8 4 5 4 5 0 3 4
24 28 31 31 28 29 29 26 22 34 32 15 24 20 19 32 30 29 18 11 24 4 14 7 4 5 2 5 5 16 21 13 10 14 12 6 19 23 12 8 12 6 6 3 4 2 2
26 30 29 31 31 30 26 26 28 31 30 25 23 23 21 21 30 23 24 22 16 17 8 7 3 6 6 8 10 15 17 9 12 13 18 11 4 13 18 17 14 8 5 3 1 7 10
29 24 28 32 31 28 28 29 26 24 25 27 24 21 23 31 22 20 24 19 13 4 7 7 7 5 5 5 7 7 12 8 7 16 16 10 4 18 19 22 18 18 13 11 7 3 3
36 37 39 37 35 31 31 28 26 23 24 28 27 25 25 25 10 19 25 17 10 2 10 14 8 1 3 13 10 8 3 4 16 13 10 9 17 17 22 23 17 10 16 17 12 10 10
32 20 21 23 32 33 30 31 28 25 26 25 26 27 25 17 9 22 21 17 8 6 9 9 10 12 8 4 2 7 10 6 4 9 4 7 1 7 8 11 18 12 11 6 4 5 10
30 29 29 31 30 37 33 32 31 29 29 25 25 25 19 11 17 21 19 17 8 7 10 13 12 15 12 7 5 5 10 8 9 7 7 5 4 4 7 11 8 11 11 3 4 6 11
36 33 34 33 34 36 36 34 32 29 28 27 26 26 17 10 13 24 14 15 7 6 9 6 16 18 22 10 8 4 10 9 4 4 6 11 9 15 9 9 7 16 13 5 7 8 3
43 40 38 36 34 43 40 36 35 31 30 28 26 14 9 10 19 19 17 14 7 15 13 18 22 24 13 14 9 12 12 12 11 15 12 12 5 3 9 5 11 8 8 7 1 1 3
36 33 30 36 38 40 44 39 37 34 32 31 13 10 9 15 18 21 14 7 6 8 16 22 13 17 19 21 15 18 16 14 11 18 2 3 5 2 11 6 6 6 11 4 3 7 8
33 27 33 36 37 41 44 42 38 36 34 32 12 8 9 19 12 18 15 6 8 15 20 13 12 15 18 22 22 17 17 9 19 21 15 6 3 4 9 11 14 5 4 4 3 4 3
7 20 30 33 35 41 42 41 39 38 37 25 5 7 6 20 14 9 10 13 12 18 4 5 7 6 16 22 17 18 16 11 11 18 20 12 2 6 10 4 1 16 13 14 4 7 5
19 27 30 32 34 39 41 41 40 39 37 8 10 4 9 15 9 9 11 17 11 16 8 5 5 3 5 14 9 14 11 2 8 15 15 15 9 6 5 4 7 10 18 17 17 0 13
24 28 30 31 35 37 38 39 39 39 32 7 5 6 6 7 6 23 22 17 13 5 6 8 7 12 15 13 4 13 9 2 5 11 6 15 6 15 13 5 6 11 17 19 19 10 20
25 28 30 30 34 36 37 37 38 36 26 4 3 2 1 7 12 19 16 15 20 10 5 5 5 9 10 8 5 3 8 4 5 2 8 12 8 15 18 5 2 3 4 17 22 27 17
27 29 30 31 34 34 33 33 36 30 16 5 5 5 4 7 19 22 16 17 20 8 4 5 12 12 8 9 9 10 13 10 6 2 10 3 2 5 5 12 11 13 14 15 14 13 14
27 29 29 29 28 28 28 29 31 24 9 4 3 2 7 15 17 16 10 18 17 13 9 6 17 12 13 9 12 9 6 7 8 9 9 7 5 3 5 6 4 8 25 22 22 21 20
26 27 28 28 29 30 28 23 26 17 7 3 3 4 9 8 12 8 20 19 16 7 11 10 11 9 8 13 15 12 10 6 6 4 6 7 6 1 3 1 15 9 5 17 23 25 21
26 32 33 29 28 28 22 21 16 8 12 4 2 5 6 10 12 21 25 18 17 15 10 12 5 6 18 10 7 4 2 2 2 5 10 7 4 4 5 6 8 13 6 8 9 19 20
40 36 35 33 30 28 23 21 19 20 17 7 4 1 8 14 3 18 20 20 16 9 6 4 5 5 5 4 3 6 6 3 4 1 5 8 7 6 3 5 7 10 8 8 3 18 17
37 38 36 32 26 24 24 22 19 17 19 9 5 6 8 12 4 3 7 9 6 7 7 4 5 3 2 3 3 4 3 1 7 8 7 6 4 11 10 7 10 5 5 7 9 20 4
33 33 31 27 23 24 22 20 20 16 18 13 4 7 7 7 4 5 4 5 5 4 9 7 5 1 3 3 3 5 4 7 3 5 8 9 11 8 8 6 18 14 8 15 11 13 5
31 31 28 26 24 23 21 19 18 18 17 12 7 5 9 10 6 4 7 7 6 3 8 2 3 4 5 4 2 3 3 3 3 5 6 6 10 7 11 10 15 10 9 5 6 6 6
Wind_Direction
263 260 259 257 256 255 247 250 244 232 227 222 215 212 208 207 208 208 202 200 204 212 211 195 172 161 151 226 221 136 75 156 194 180 186 185 169 176 201 182 168 219 189 208 244 259 279
261 261 258 252 252 253 252 249 246 238 228 222 215 211 204 205 205 204 203 200 201 211 212 200 169 155 181 224 126 152 131 183 193 143 155 163 190 200 159 176 214 180 215 221 239 226 235
263 259 257 254 250 245 244 244 245 238 233 221 215 210 204 201 201 199 201 197 199 205 209 201 166 175 213 211 153 145 145 140 212 166 111 70 91 206 156 148 156 157 227 228 226 234 240
256 254 252 252 248 248 244 240 241 236 229 221 215 211 202 195 197 195 198 194 191 197 207 179 169 179 217 140 147 158 168 123 147 109 100 345 37 99 319 113 116 200 212 238 178 195 211
255 251 251 252 248 245 241 241 240 235 230 220 214 210 202 193 191 188 188 185 179 189 205 169 190 143 192 135 165 169 170 155 153 121 133 126 56 55 156 178 177 219 236 223 247 212 199
263 250 251 247 250 245 241 238 243 223 238 218 212 207 206 192 186 183 181 173 175 179 188 189 276 116 195 184 152 161 178 161 149 124 108 160 87 16 191 203 213 208 220 219 229 169 229
281 266 248 245 247 224 242 229 242 215 224 220 207 194 198 196 183 176 164 140 144 168 198 199 188 140 146 124 142 170 159 160 143 172 180 189 164 207 240 258 300 155 182 242 326 282 271
269 256 256 244 242 245 230 230 222 224 218 217 205 186 192 193 179 170 167 186 184 150 179 209 236 112 160 174 135 160 164 163 174 184 161 151 215 213 200 237 236 197 178 167 333 358 309
248 260 254 239 239 236 234 229 223 216 198 202 200 186 181 199 175 165 182 183 161 154 142 178 202 166 170 178 174 176 178 170 182 173 186 199 260 185 181 184 191 197 175 145 146 351 289
282 231 249 242 235 235 219 227 226 220 190 192 203 181 193 179 192 173 187 163 175 193 151 172 191 208 137 128 211 151 193 182 184 185 179 221 178 171 184 187 194 211 199 200 198 59 279
264 261 262 234 234 220 209 219 213 208 199 196 190 178 181 177 139 185 171 148 129 279 195 156 151 74 154 191 129 199 161 209 172 158 173 166 172 183 182 195 196 229 172 192 203 212 267
262 223 243 243 224 217 212 204 212 203 199 191 187 177 176 189 166 184 154 139 106 162 172 156 140 181 135 166 138 133 177 108 4 149 115 148 148 172 173 177 191 145 134 153 159 204 248
277 262 236 229 232 218 209 201 202 201 191 187 181 177 168 172 182 169 142 146 160 208 156 152 167 168 162 160 124 200 184 166 171 158 167 122 195 162 163 153 188 179 161 169 187 194 246
281 265 254 231 212 212 202 196 191 192 186 185 175 169 176 161 205 150 151 165 194 120 161 174 161 157 183 155 194 171 174 190 200 104 134 169 187 183 185 201 176 190 186 191 215 209 248
283 258 249 222 213 201 194 189 186 185 179 177 169 176 169 189 177 156 159 170 149 160 154 147 146 167 174 180 150 185 208 197 171 187 192 184 184 192 185 154 169 162 201 243 281 322 260
278 261 235 208 191 195 191 186 179 179 174 169 169 158 179 181 181 150 170 154 113 167 141 149 143 173 174 185 174 192 184 196 189 196 279 196 150 227 181 204 217 204 140 148 182 212 229
298 237 202 187 185 182 177 174 172 170 168 163 162 160 163 168 196 160 177 106 129 153 139 162 152 155 181 179 194 192 192 171 194 188 186 156 184 132 164 203 192 143 177 222 192 186 244
39 126 144 152 159 162 164 164 164 163 160 155 132 149 157 162 162 161 156 144 133 150 121 120 122 124 167 176 189 196 197 223 192 178 192 172 143 182 200 130 293 211 203 194 198 190 255
87 107 120 135 144 153 156 155 156 159 158 125 146 101 161 178 157 143 122 124 129 153 145 106 112 151 136 163 174 206 200 180 173 187 190 174 211 192 193 220 209 219 219 230 233 313 238
104 116 125 132 136 144 147 150 152 156 157 123 130 145 140 149 157 136 133 140 126 92 72 81 108 121 119 158 22 179 181 156 165 203 134 163 194 211 218 225 185 207 223 220 226 230 243
107 112 116 132 134 138 144 149 150 150 157 111 59 119 98 144 146 140 120 141 137 137 91 133 109 169 130 140 132 158 159 142 78 127 160 187 218 219 238 240 90 180 234 236 230 236 235
109 111 115 118 123 134 142 147 150 154 135 70 124 147 91 98 142 137 120 158 145 120 158 102 136 131 115 140 171 163 167 178 174 108 167 173 132 183 246 236 244 250 247 238 234 259 247
107 109 112 115 120 126 133 141 145 132 90 91 190 140 111 145 141 149 154 151 140 129 39 112 142 119 85 85 96 85 124 95 138 176 164 178 143 147 227 193 192 252 237 246 248 239 235
108 112 111 114 115 117 117 122 142 144 114 92 206 115 113 123 138 115 139 127 139 125 115 112 107 104 117 110 75 57 30 63 83 117 138 165 149 140 238 124 219 249 248 231 233 243 242
114 110 97 101 109 103 99 107 127 178 213 186 213 107 102 110 111 123 132 117 100 95 92 104 49 83 138 117 92 102 71 86 211 233 219 193 145 167 198 211 311 284 206 185 205 251 234
89 98 90 86 89 97 103 114 131 151 127 89 44 309 104 119 69 128 126 121 121 115 74 64 33 56 56 69 93 153 182 161 187 163 212 212 255 200 163 224 239 264 203 192 164 269 233
75 80 81 82 80 89 92 87 80 81 99 96 52 352 85 96 42 95 131 134 116 82 96 120 121 94 37 96 121 161 195 238 166 170 168 177 201 220 215 232 269 256 209 160 187 259 156
71 75 80 78 68 66 66 74 88 86 87 78 65 14 109 87 61 13 30 114 106 110 140 153 114 308 90 133 161 178 172 203 165 171 173 169 177 206 213 222 260 171 178 208 241 293 16
68 67 69 70 71 74 69 56 53 60 67 93 70 18 55 75 92 88 101 57 21 25 117 178 102 148 157 120 190 131 159 167 152 218 186 203 205 179 195 202 251 194 246 43 7 308 53